sat.trackr.live / text

‹ back to catalog

STARLINK-32533

NORAD 61706 · 2024-195V

PAYLOAD ACTIVE UNKNOWN

§ Identity

Operator
Country
US
Launch date
2024-10-30
Launch site
AFWTR
Launch vehicle
Mass (kg)
RCS (m²)

Purposes: comms

External: N2YO · Heavens-Above · Gunter

§ Orbital elements

Epoch: 2026-09-20T11:43:32.918016Z

Period
93.85 min
Inclination
53.1590°
Eccentricity
0.0001227
Mean motion
15.34388321 rev/d
Perigee alt
461.9 km
Apogee alt
463.6 km
Semi-major
6,840.9 km
B*
-1.3446e-5
RAAN
325.7425°
Arg perigee
84.8639°
Mean anomaly
275.2503°
Rev number
10,707

§ Raw data

STARLINK-325331 61706U 24195V   26263.48857544 -.00000830  00000+0 -13446-4 0  99992 61706  53.1590 325.7425 0001227  84.8639 275.2503 15.34388321107070

JSON: /api/v1/satellites/61706 · /tle

For live sub-satellite position, see the globe view (requires WebGL).

§ Visibility from observer

Set your observer location to see the next 7 days of passes ≥ 10°. The values pass through the URL so the page stays shareable.

No JS? Fill the form by hand. The geolocation button needs JavaScript.